Location: Glion
(46.4330°N, 6.9246°E)
Time: 08:54:51
(UTC+00:00)

Ariane Rocket - Pass Details

Date: 03 March 2021
Orbit: 759 x 771 km, 98.7° (Epoch: 14 April)

Event Time Altitude Azimuth Distance (km) Brightness Sun altitude
Exits shadow 18:42:04 20° 116° (ESE) 1,711 4.2 -14.7°
Maximum altitude 18:44:50 35° 66° (ENE) 1,240 3.6 -15.2°
Drops below altitude 10° 18:49:25 10° 2° (N) 2,323 5.6 -15.9°
Sets 18:51:54 0° 354° (N) 3,253 6.4 -16.4°
